Total_Precipitation_Accumulation
0.41 0.49 0.53 0.57 0.64 0.78 1.06 1.30 0.78 0.61 0.77 0.74 1.04 1.36 1.34 1.25 1.06 1.40 1.14 1.02 1.28 1.34 1.10 2.01 2.93 2.58 1.71 1.29 0.49 0.33 0.51 0.40 0.87 1.70 1.03 0.60 0.37 0.40 0.22 0.07 0.23 0.31 0.19 0.19 0.27 0.27 0.20
0.44 0.49 0.57 0.68 0.89 0.72 1.36 1.10 0.72 0.60 0.71 0.93 1.09 1.18 1.26 1.27 1.53 1.84 1.68 1.66 1.53 1.09 0.89 1.56 2.20 1.90 1.32 0.94 0.17 0.24 0.55 0.59 0.76 1.39 1.22 1.15 0.48 0.46 0.24 0.14 0.18 0.10 0.35 0.43 0.54 0.43 0.50
0.44 0.55 0.62 0.87 0.72 0.79 1.08 0.90 0.63 0.66 0.82 0.85 1.20 1.53 1.67 1.66 1.92 1.76 1.64 1.48 1.20 1.09 1.12 1.61 1.92 1.39 1.37 0.75 0.10 0.26 0.47 0.82 1.08 1.23 1.09 1.26 0.71 1.00 0.55 0.26 0.08 0.18 0.54 0.72 0.68 0.60 0.55
0.52 0.59 0.84 0.77 0.69 0.81 1.28 0.80 0.62 0.67 0.86 0.81 0.98 1.08 1.22 1.38 1.33 1.20 1.09 0.95 0.84 0.83 1.58 1.83 1.70 1.38 0.90 0.29 0.07 0.18 0.34 0.82 1.01 1.18 1.24 1.50 1.11 1.17 0.79 0.28 0.21 0.32 0.55 0.90 0.57 0.75 0.71
0.52 0.82 0.82 0.65 0.68 0.98 1.37 0.92 0.75 0.66 0.83 0.85 0.76 0.95 1.00 0.90 0.84 0.87 0.91 0.83 0.83 0.94 1.59 1.99 1.56 1.21 0.78 0.24 0.13 0.17 0.18 0.60 1.06 1.48 1.72 2.25 2.19 1.35 1.06 0.60 0.62 0.44 0.39 0.51 0.63 0.66 0.93
0.76 0.86 0.74 0.68 0.68 1.05 1.26 0.94 0.65 0.67 0.80 0.74 0.68 0.77 0.74 0.58 0.61 0.96 1.36 1.31 1.69 1.84 2.04 1.90 1.57 1.45 0.78 0.20 0.15 0.20 0.24 0.72 1.44 1.97 2.60 3.07 3.35 1.72 1.26 1.00 0.95 0.30 0.25 0.30 0.51 0.46 0.90
0.98 0.83 0.67 0.66 0.76 1.04 0.94 0.86 0.64 0.65 0.73 0.62 0.63 0.64 0.61 0.62 0.80 1.42 2.07 1.95 1.63 2.59 2.04 1.90 1.22 0.64 0.54 0.29 0.33 0.38 0.50 1.23 2.16 2.64 2.40 2.44 2.65 1.38 0.76 0.38 0.42 0.33 0.20 0.22 0.26 0.29 0.62
1.00 0.69 0.65 0.69 0.73 0.98 0.76 0.82 0.73 0.70 0.66 0.54 0.55 0.68 0.71 0.77 1.19 1.74 1.72 2.03 1.52 1.98 2.77 1.35 0.59 0.46 0.24 0.34 0.56 0.54 1.08 2.50 2.15 2.60 1.96 1.73 1.38 0.68 0.48 0.57 0.49 0.36 0.29 0.30 0.35 0.58 0.58
0.81 0.53 0.59 0.66 0.66 0.85 0.76 0.87 0.88 0.88 0.85 0.65 0.62 0.71 0.77 0.87 1.19 1.91 1.41 1.93 1.41 0.91 1.85 1.84 0.91 0.60 0.31 0.58 0.83 0.85 1.66 2.56 1.99 2.00 1.64 0.96 0.63 0.64 0.59 0.53 0.72 0.42 0.31 0.26 0.56 0.51 0.56
0.62 0.53 0.55 0.59 0.71 0.88 0.82 0.93 0.78 0.79 0.90 0.83 0.73 0.74 0.91 1.14 1.55 1.42 2.13 1.40 1.37 0.96 1.41 1.91 1.35 0.72 0.58 0.84 1.13 0.87 1.35 2.12 2.27 1.94 1.81 1.21 0.57 0.51 0.60 0.81 0.63 0.42 0.27 0.36 0.55 0.77 0.60
0.49 0.45 0.49 0.55 0.68 0.78 0.82 0.94 0.95 0.85 0.74 0.73 0.72 0.82 0.97 1.48 1.48 1.33 1.66 1.48 1.28 1.16 2.03 1.84 1.27 0.66 0.58 0.82 1.03 1.10 1.25 1.77 1.58 1.82 1.93 1.27 0.65 0.67 0.68 0.78 0.41 0.38 0.31 0.36 0.47 0.68 0.63
0.48 0.49 0.52 0.57 0.73 0.81 0.88 1.09 1.16 0.89 0.80 0.84 1.13 1.25 1.37 1.28 1.09 0.99 1.00 1.46 1.55 1.33 1.99 1.45 0.96 0.80 0.86 0.62 0.55 0.66 1.15 1.55 1.74 1.67 1.52 0.91 0.60 0.77 0.53 0.53 0.60 0.90 0.76 0.67 0.48 0.62 0.90
0.51 0.60 0.63 0.66 0.82 0.93 1.07 1.05 0.91 0.93 1.03 1.17 1.57 1.84 1.86 1.48 1.06 0.72 1.18 1.54 1.73 1.32 0.87 0.54 0.42 0.32 0.29 0.26 0.38 0.43 0.72 0.96 1.35 1.76 1.93 1.40 0.84 0.66 0.45 0.77 0.91 0.89 0.96 1.26 1.14 1.12 0.49
0.49 0.59 0.64 0.81 0.96 1.18 1.17 0.88 0.74 0.71 0.98 1.32 1.63 1.49 1.25 1.03 0.94 1.37 1.39 1.30 1.74 1.10 0.48 0.22 0.11 0.24 0.21 0.20 0.27 0.28 0.52 0.62 0.55 0.47 1.16 1.51 1.49 0.79 0.57 0.39 0.78 0.33 0.46 1.42 1.21 0.82 0.44
0.53 0.70 0.86 0.92 1.04 1.09 0.91 0.62 0.70 0.93 1.41 2.30 1.88 1.52 1.42 1.16 1.09 1.61 1.48 1.40 1.39 0.80 0.35 0.18 0.22 0.33 0.43 0.22 0.21 0.37 0.42 0.28 0.17 0.21 0.58 0.90 0.96 0.42 0.31 0.18 0.33 0.52 0.46 0.33 0.73 0.52 0.77
0.66 0.85 0.86 0.96 1.07 1.01 0.81 0.76 1.03 1.55 2.26 2.35 1.57 1.68 1.38 1.19 1.16 1.54 1.63 1.28 0.70 0.20 0.20 0.09 0.22 0.21 0.23 0.20 0.33 0.37 0.44 0.31 0.27 0.27 0.22 0.16 0.50 0.27 0.26 0.36 0.30 0.26 0.18 0.29 0.73 0.78 0.60
0.79 0.80 0.92 1.02 1.03 1.03 1.00 1.17 1.53 2.23 2.63 2.13 1.52 1.88 1.80 1.17 1.48 1.84 1.76 1.26 0.42 0.06 0.07 0.14 0.16 0.21 0.24 0.29 0.15 0.13 0.22 0.18 0.22 0.14 0.02 0.02 0.30 0.25 0.25 0.36 0.29 0.13 0.20 0.19 0.28 0.26 0.46
0.93 0.93 0.97 1.00 0.97 0.94 0.87 0.92 1.01 1.60 2.36 2.43 2.00 1.89 1.87 1.30 1.77 1.61 1.22 0.84 0.27 0.08 0.04 0.13 0.13 0.16 0.17 0.14 0.16 0.13 0.08 0.12 0.15 0.22 0.08 0.01 0.13 0.17 0.11 0.06 0.06 0.07 0.03 0.12 0.42 0.26 0.41
0.79 0.91 1.01 1.03 0.87 0.78 0.78 0.77 0.89 1.23 1.94 2.81 2.28 2.05 1.99 1.08 1.09 0.78 0.59 0.31 0.31 0.25 0.17 0.29 0.26 0.24 0.18 0.15 0.34 0.18 0.26 0.21 0.13 0.14 0.20 0.09 0.28 0.31 0.30 0.21 0.13 0.17 0.05 0.10 0.22 0.48 0.38
0.94 0.92 1.01 1.06 0.95 0.88 0.77 0.69 0.83 1.24 1.75 2.64 2.32 2.22 2.39 1.46 0.60 0.51 0.58 0.31 0.23 0.19 0.33 0.24 0.29 0.31 0.31 0.21 0.21 0.42 0.30 0.36 0.31 0.20 0.17 0.33 0.34 0.16 0.17 0.32 0.42 0.32 0.07 0.09 0.39 0.69 0.20
1.06 1.09 1.21 1.30 1.14 1.08 0.96 0.82 0.86 1.34 2.04 2.57 2.04 1.13 0.78 1.02 0.43 0.42 0.53 0.52 0.26 0.28 0.23 0.30 0.29 0.25 0.37 0.41 0.20 0.24 0.28 0.28 0.24 0.46 0.39 0.61 0.37 0.14 0.15 0.23 0.59 0.38 0.14 0.11 0.39 0.20 0.35
1.31 1.50 1.54 1.77 1.51 1.48 1.37 0.97 0.93 1.45 1.90 2.42 2.06 1.01 0.66 0.37 0.19 0.26 0.34 0.36 0.21 0.34 0.28 0.33 0.31 0.19 0.20 0.36 0.35 0.29 0.25 0.22 0.29 0.40 0.58 0.71 0.59 0.39 0.40 0.28 0.39 0.29 0.08 0.13 0.13 0.04 0.05
1.73 1.64 1.62 1.75 1.59 1.49 1.38 1.19 1.07 1.50 2.37 2.68 2.05 1.19 1.28 0.69 0.13 0.23 0.21 0.19 0.18 0.16 0.18 0.13 0.15 0.23 0.13 0.10 0.10 0.07 0.08 0.21 0.29 0.30 0.59 0.90 0.84 0.91 0.64 0.21 0.29 0.40 0.09 0.06 0.10 0.07 0.03
1.74 1.73 1.79 1.78 1.60 1.49 1.47 1.41 1.42 1.76 2.38 2.59 2.20 1.86 1.76 0.91 0.20 0.14 0.11 0.10 0.12 0.11 0.25 0.05 0.04 0.17 0.06 0.03 0.06 0.07 0.10 0.10 0.13 0.13 0.18 0.45 0.71 1.09 1.21 0.65 0.73 0.31 0.10 0.14 0.16 0.13 0.09
1.87 1.94 1.95 2.15 1.91 1.53 1.40 1.40 1.70 2.01 2.09 2.36 2.03 2.16 1.98 1.23 0.22 0.09 0.10 0.13 0.10 0.11 0.10 0.07 0.03 0.02 0.04 0.09 0.24 0.37 0.29 0.24 0.13 0.06 0.07 0.17 0.41 0.86 0.78 0.56 0.32 0.06 0.08 0.11 0.10 0.13 0.05
1.71 1.85 2.07 2.43 2.60 2.36 2.04 1.74 1.89 2.08 2.35 2.73 2.28 2.26 2.60 2.03 0.56 0.14 0.23 0.19 0.29 0.25 0.13 0.05 0.02 0.04 0.13 0.32 0.59 0.64 0.37 0.27 0.18 0.08 0.03 0.08 0.31 0.83 0.82 0.77 0.32 0.09 0.02 0.03 0.04 0.09 0.02
2.20 2.45 2.60 2.79 3.00 2.50 2.32 2.06 2.00 2.36 2.91 2.99 2.67 2.36 3.42 2.98 0.85 0.26 0.43 0.38 0.29 0.30 0.33 0.11 0.13 0.17 0.25 0.48 0.76 0.48 0.28 0.19 0.29 0.30 0.21 0.25 0.41 0.72 0.56 0.72 0.19 0.08 0.03 0.05 0.17 0.14 0.03
2.27 2.44 2.68 2.77 2.99 2.69 2.52 2.39 2.36 2.61 2.89 3.34 2.93 2.49 3.78 3.57 1.41 0.45 0.30 0.32 0.30 0.36 0.52 0.26 0.37 0.34 0.47 0.78 0.85 0.44 0.38 0.31 0.23 0.25 0.38 0.40 0.52 0.55 0.55 0.88 0.36 0.11 0.12 0.20 0.21 0.07 0.04
1.81 1.93 2.29 2.50 2.50 2.33 2.24 2.02 1.98 2.23 2.57 3.29 3.17 2.40 2.87 3.79 2.26 0.64 0.35 0.22 0.17 0.18 0.34 0.48 0.57 0.36 0.64 0.80 0.87 0.74 0.61 0.41 0.35 0.33 0.25 0.52 0.64 0.72 0.58 0.54 0.40 0.31 0.38 0.40 0.30 0.17 0.11